Hermiston, OR

12:08 PM PDT on July 22, 2017 (GMT -0700)
Hermiston Municipal

Weather History for KHRI - November, 2013

Change the Weather History Date:

Sunday, November 17, 2013

  Actual Average Record
Temperature  
Mean Temperature 50 °F 40 °F  
Max Temperature 60 °F 49 °F 73 °F (1932)
Min Temperature 41 °F 31 °F 6 °F (1961)
Degree Days  
Heating Degree Days 14    
Moisture  
Dew Point 35 °F    
Average Humidity 59    
Maximum Humidity 86    
Minimum Humidity 35    
Precipitation  
Precipitation 0.00 in 0.04 in 0.69 in (1989)
Month to date precipitation 0.67  
Year to date precipitation 8.58  
Sea Level Pressure  
Sea Level Pressure 29.91 in    
Wind  
Wind Speed 10 mph (SW)    
Max Wind Speed 20 mph    
Max Gust Speed 28 mph    
Visibility 10 miles    
Events Rain    
T = Trace of Precipitation, MM = Missing Value Source: NWS Daily Summary

Daily Weather History Graph

Daily Weather History Graph

Search for Another Location

Airport or City:

Trip Planner

Search our weather history database for the weather conditions in past years. The results will help you decide how hot, cold, wet, or windy it might be!

Date:

Astronomy

Nov. 17, 2013 Rise Set
Actual Time 7:00 AM PST 4:23 PM PST
Civil Twilight 6:27 AM PST 4:56 PM PST
Nautical Twilight 5:51 AM PST 5:32 PM PST
Astronomical Twilight 5:16 AM PST 6:07 PM PST
Moon 4:44 PM PST (11/17) 6:58 AM PST (11/17)
Length of Visible Light 10h 28m
Length of Day
9h 23m
Full, 100% of the Moon is Illuminated
Nov 17
Full
Nov 25
Last Quarter
Dec 2
New
Dec 9
First Quarter
Dec 17
Full

Hourly Weather History & Observations

Time (PST) Temp. Windchill Dew Point Humidity Pressure Visibility Wind Dir Wind Speed Gust Speed Precip Events Conditions
12:53 AM 46.0 °F 39.6 °F 36.0 °F 68% 29.79 in 10.0 mi WSW 15.0 mph - N/A   Overcast
1:53 AM 45.0 °F 39.3 °F 36.0 °F 71% 29.81 in 10.0 mi WSW 11.5 mph - N/A   Overcast
2:53 AM 45.0 °F 39.3 °F 36.0 °F 71% 29.83 in 10.0 mi SW 11.5 mph - 0.00 in Rain Light Rain
3:53 AM 46.0 °F 41.0 °F 36.0 °F 68% 29.84 in 10.0 mi SW 10.4 mph - 0.00 in   Overcast
4:53 AM 45.0 °F 40.1 °F 37.0 °F 74% 29.86 in 10.0 mi WSW 9.2 mph - 0.00 in Rain Light Rain
5:53 AM 42.1 °F 39.2 °F 37.0 °F 82% 29.88 in 10.0 mi SSW 4.6 mph - 0.00 in   Overcast
6:53 AM 41.0 °F - 37.0 °F 86% 29.91 in 10.0 mi Calm Calm - N/A   Overcast
7:53 AM 43.0 °F 40.3 °F 37.9 °F 82% 29.92 in 10.0 mi SSE 4.6 mph - N/A   Overcast
8:53 AM 46.0 °F - 39.0 °F 76% 29.94 in 10.0 mi Calm Calm - N/A   Overcast
9:53 AM 48.0 °F - 39.9 °F 74% 29.96 in 10.0 mi Calm Calm - N/A   Scattered Clouds
10:53 AM 52.0 °F - 37.0 °F 57% 29.96 in 10.0 mi WSW 4.6 mph - N/A   Overcast
11:53 AM 55.9 °F - 36.0 °F 47% 29.94 in 10.0 mi West 9.2 mph - N/A   Overcast
12:53 PM 57.9 °F - 33.1 °F 39% 29.93 in 10.0 mi WSW 17.3 mph 26.5 mph N/A   Overcast
1:53 PM 59.0 °F - 32.0 °F 36% 29.90 in 10.0 mi SW 16.1 mph 27.6 mph 0.00 in   Mostly Cloudy
2:53 PM 60.1 °F - 32.0 °F 35% 29.90 in 10.0 mi WSW 19.6 mph - N/A   Clear
3:53 PM 57.0 °F - 32.0 °F 39% 29.90 in 10.0 mi WSW 16.1 mph - N/A   Clear
4:53 PM 52.0 °F - 32.0 °F 47% 29.91 in 10.0 mi SSW 11.5 mph - N/A   Clear
5:53 PM 50.0 °F - 32.0 °F 50% 29.93 in 10.0 mi SSW 10.4 mph - N/A   Scattered Clouds
6:53 PM 52.0 °F - 32.0 °F 47% 29.93 in 10.0 mi SW 10.4 mph - N/A   Clear
7:53 PM 48.0 °F - 33.1 °F 56% 29.93 in 10.0 mi SSW 6.9 mph - N/A   Clear
8:53 PM 48.9 °F - 33.1 °F 54% 29.94 in 10.0 mi SSW 5.8 mph - N/A   Clear
9:53 PM 48.9 °F - 32.0 °F 52% 29.94 in 10.0 mi Calm Calm - N/A   Clear
10:53 PM 46.9 °F - 32.0 °F 56% 29.94 in 10.0 mi SW 6.9 mph - N/A   Clear
11:53 PM 50.0 °F - 32.0 °F 50% 29.95 in 10.0 mi WSW 6.9 mph - N/A   Clear